EW5770 Genova IT current weather conditions

sailwx.info

Wind from 094 at 0 knots gusting 2

Air temperature 28.9° C
Dewpoint 19.8° C

Last reported at 2020-Aug-10 08:00 UTC.
Time now 2020-Aug-10 08:55 UTC

Location: N 44°27' E 008°59'.
View on Google Maps.

See reports from other nearby stations

  
Tides and Currents Weather Stations Pressure Air Temp Water Temp Dewpoint Dewpoint Depression Visibility Wind Speed Wind Dir Waves Ship Positions
date/time (UTC)wind fromknots sea level pressurealtimeterstation pressurevisibilityair tempwater tempwave heightnotes
2020-Aug-10 08:00 094 0 gusting 2 28.9
2020-Aug-10 07:55 083 28.9
2020-Aug-10 07:50 041 0 gusting 2 28.3
2020-Aug-10 07:45 110 1 gusting 2 28.3
2020-Aug-10 07:40 045 1 gusting 2 27.8
2020-Aug-10 07:35 040 0 gusting 3 27.2
2020-Aug-10 07:30 031 2 gusting 3 27.2
2020-Aug-10 07:25 037 1 gusting 2 27.8
2020-Aug-10 07:20 096 0 gusting 2 27.2
2020-Aug-10 07:15 086 0 gusting 2 27.2
2020-Aug-10 07:10 088 26.7
2020-Aug-10 07:00 040 1 gusting 4 25.6
2020-Aug-10 06:55 034 3 gusting 5 25.0
2020-Aug-10 06:50 030 4 gusting 5 24.4
2020-Aug-10 06:45 024 3 gusting 6 24.4
2020-Aug-10 06:40 049 5 gusting 6 24.4
2020-Aug-10 06:35 020 4 gusting 6 24.4
2020-Aug-10 06:30 347 3 gusting 5 24.4
2020-Aug-10 06:25 037 3 gusting 5 23.9
2020-Aug-10 06:20 005 4 gusting 6 23.9
2020-Aug-10 06:15 050 4 gusting 6 23.9
2020-Aug-10 06:05 030 3 gusting 6 23.3
2020-Aug-10 06:00 027 4 gusting 6 23.3
2020-Aug-10 05:50 349 6 gusting 6 22.8
2020-Aug-10 05:45 019 5 gusting 6 22.8
2020-Aug-10 05:35 027 5 gusting 6 22.8
2020-Aug-10 05:30 340 5 gusting 6 22.8
2020-Aug-10 05:20 016 6 gusting 7 22.2
2020-Aug-10 05:15 346 3 gusting 5 22.2
2020-Aug-10 05:10 037 3 gusting 6 22.2
2020-Aug-10 05:05 037 4 gusting 6 22.2
2020-Aug-10 04:55 351 4 gusting 7 22.2
2020-Aug-10 04:50 055 5 gusting 8 22.2
2020-Aug-10 04:45 018 6 gusting 8 21.7
2020-Aug-10 04:35 060 3 gusting 6 21.7
2020-Aug-10 04:30 349 4 gusting 6 21.7
2020-Aug-10 04:25 035 3 gusting 6 21.1
2020-Aug-10 04:20 018 4 gusting 5 21.7
2020-Aug-10 04:15 025 1 gusting 3 21.7
2020-Aug-10 04:05 018 1 gusting 5 22.2
2020-Aug-10 04:00 010 4 gusting 5 21.7
2020-Aug-10 03:55 020 3 gusting 6 22.2
2020-Aug-10 03:45 016 3 gusting 5 22.2
2020-Aug-10 03:40 354 2 gusting 4 22.2
2020-Aug-10 03:30 017 2 gusting 4 21.7
2020-Aug-10 03:25 030 3 gusting 4 22.2
2020-Aug-10 03:20 035 2 gusting 4 22.2
2020-Aug-10 03:10 033 3 gusting 5 22.2
2020-Aug-10 03:05 004 2 gusting 6 21.7
2020-Aug-10 03:00 009 5 gusting 6 21.7
2020-Aug-10 02:55 036 4 gusting 5 21.7
2020-Aug-10 02:50 041 3 gusting 4 22.2
2020-Aug-10 02:40 025 1 gusting 2 22.2
2020-Aug-10 02:35 025 0 gusting 3 22.8
2020-Aug-10 02:30 005 1 gusting 6 22.8
2020-Aug-10 02:20 032 3 gusting 6 22.2
2020-Aug-10 02:15 020 6 gusting 6 21.7
2020-Aug-10 02:10 022 6 gusting 6 21.7
2020-Aug-10 02:05 030 2 gusting 5 22.2
2020-Aug-10 01:55 023 2 gusting 3 22.2
2020-Aug-10 01:50 032 2 gusting 4 22.2
2020-Aug-10 01:45 349 1 gusting 5 22.2
2020-Aug-10 01:35 032 2 gusting 5 22.2
2020-Aug-10 01:30 025 2 gusting 4 22.2
2020-Aug-10 01:20 027 3 gusting 5 22.2
2020-Aug-10 01:15 027 3 gusting 5 22.8
2020-Aug-10 01:10 017 3 gusting 5 22.8
2020-Aug-10 01:05 003 2 gusting 5 23.3
2020-Aug-10 01:00 015 3 gusting 5 22.8
2020-Aug-10 00:55 005 4 gusting 5 22.8
2020-Aug-10 00:50 342 3 gusting 5 22.2
2020-Aug-10 00:45 032 3 gusting 5 22.8
2020-Aug-10 00:40 014 3 gusting 5 22.8
2020-Aug-10 00:35 011 2 gusting 5 22.8
2020-Aug-10 00:25 020 3 gusting 4 22.8
2020-Aug-10 00:20 030 2 gusting 4 22.8
2020-Aug-10 00:15 009 2 gusting 5 23.3
2020-Aug-10 00:10 049 3 gusting 5 23.3
2020-Aug-10 00:05 352 2 gusting 5 23.3
2020-Aug-10 00:00 359 4 gusting 6 23.3
2020-Aug-09 23:55 008 4 gusting 6 22.8
2020-Aug-09 23:50 023 2 gusting 5 22.8
2020-Aug-09 23:40 014 2 gusting 4 22.8
2020-Aug-09 23:35 005 2 gusting 5 22.8
2020-Aug-09 23:30 022 2 gusting 6 22.8
2020-Aug-09 23:25 032 5 gusting 7 23.3
2020-Aug-09 23:20 024 5 gusting 8 22.8
2020-Aug-09 23:15 011 6 gusting 8 22.8
2020-Aug-09 23:10 022 5 gusting 7 23.3
2020-Aug-09 23:05 358 3 gusting 6 23.3
2020-Aug-09 23:00 336 3 gusting 6 23.9
2020-Aug-09 22:55 327 4 gusting 6 23.9
2020-Aug-09 22:50 332 3 gusting 6 23.3
2020-Aug-09 22:40 027 2 gusting 5 23.3
2020-Aug-09 22:35 347 3 gusting 5 23.3
2020-Aug-09 22:25 011 4 gusting 5 23.9
2020-Aug-09 22:20 349 3 gusting 5 23.3
2020-Aug-09 22:15 338 3 gusting 6 23.9
2020-Aug-09 22:05 039 3 gusting 5 23.9
2020-Aug-09 22:00 341 3 gusting 5 23.9
2020-Aug-09 21:55 344 4 gusting 6 23.9
2020-Aug-09 21:45 353 3 gusting 6 23.9
2020-Aug-09 21:40 023 5 gusting 7 23.9
2020-Aug-09 21:35 330 4 gusting 7 24.4
2020-Aug-09 21:30 359 4 gusting 6 23.9
2020-Aug-09 21:20 017 3 gusting 5 23.9
2020-Aug-09 21:15 005 3 gusting 5 24.4
2020-Aug-09 21:10 348 3 gusting 6 24.4
2020-Aug-09 21:00 351 4 gusting 6 24.4
2020-Aug-09 20:55 025 5 gusting 6 24.4
2020-Aug-09 20:50 023 5 gusting 6 24.4
2020-Aug-09 20:45 022 4 gusting 6 24.4
2020-Aug-09 20:40 346 2 gusting 6 24.4
2020-Aug-09 20:30 360 3 gusting 6 25.0
2020-Aug-09 20:25 348 4 gusting 6 25.0
2020-Aug-09 20:20 354 3 gusting 5 25.0
2020-Aug-09 20:10 349 3 gusting 6 25.0
2020-Aug-09 20:05 028 4 gusting 6 25.0
2020-Aug-09 20:00 011 3 gusting 5 25.6
2020-Aug-09 19:55 033 2 gusting 6 25.6
2020-Aug-09 19:50 020 4 gusting 6 25.6
2020-Aug-09 19:40 350 3 gusting 5 25.6
2020-Aug-09 19:35 016 4 gusting 5 25.6
2020-Aug-09 19:30 011 4 gusting 5 26.1
2020-Aug-09 19:20 011 0 gusting 6 26.1
2020-Aug-09 19:15 060 4 gusting 6 26.1
2020-Aug-09 19:10 348 3 gusting 6 26.1
2020-Aug-09 19:05 037 5 gusting 8 26.7
2020-Aug-09 19:00 337 6 gusting 8 26.7
2020-Aug-09 18:55 006 6 gusting 7 26.7
2020-Aug-09 18:45 359 3 gusting 6 27.2
2020-Aug-09 18:40 333 4 gusting 6 27.2
2020-Aug-09 18:35 015 5 gusting 6 27.2
2020-Aug-09 18:25 026 4 gusting 6 27.2
2020-Aug-09 18:20 004 3 gusting 6 27.8
2020-Aug-09 18:10 337 0 gusting 4 27.8
2020-Aug-09 18:05 023 2 gusting 4 28.3
2020-Aug-09 18:00 332 28.9
2020-Aug-09 17:55 319 0 gusting 4 28.9
2020-Aug-09 17:50 309 2 gusting 4 28.9
2020-Aug-09 17:40 078 30.0
2020-Aug-09 17:35 243 1 gusting 5 30.0
2020-Aug-09 17:30 243 3 gusting 5 30.6
2020-Aug-09 17:20 238 2 gusting 5 30.6
2020-Aug-09 17:10 233 1 gusting 4 31.1
2020-Aug-09 17:05 242 2 gusting 4 31.1
2020-Aug-09 16:55 229 0 gusting 5 31.7
2020-Aug-09 16:50 214 2 gusting 5 32.2
2020-Aug-09 16:45 116 1 gusting 5 32.2
2020-Aug-09 16:40 236 2 gusting 5 32.2
2020-Aug-09 16:30 225 1 gusting 6 32.2
2020-Aug-09 16:25 244 1 gusting 6 32.2
2020-Aug-09 16:20 232 3 gusting 6 32.2
2020-Aug-09 16:10 243 2 gusting 6 32.2
2020-Aug-09 16:05 240 1 gusting 6 32.8
2020-Aug-09 15:55 143 1 gusting 6 32.8
2020-Aug-09 15:50 255 1 gusting 6 32.8
2020-Aug-09 15:45 245 2 gusting 6 32.8
2020-Aug-09 15:40 203 2 gusting 6 32.8
2020-Aug-09 15:35 299 2 gusting 6 32.8
2020-Aug-09 15:30 275 0 gusting 6 32.8
2020-Aug-09 15:25 195 1 gusting 6 32.2
2020-Aug-09 15:15 246 1 gusting 6 32.2
2020-Aug-09 15:10 174 2 gusting 9 32.2
2020-Aug-09 15:05 193 5 gusting 9 31.7
2020-Aug-09 14:55 242 2 gusting 8 32.2
2020-Aug-09 14:50 231 5 gusting 8 32.2
2020-Aug-09 14:40 233 5 gusting 8 32.2
2020-Aug-09 14:35 223 4 gusting 8 32.2
2020-Aug-09 14:30 283 1 gusting 7 32.2
2020-Aug-09 14:20 333 4 gusting 10 32.2
2020-Aug-09 14:10 248 1 gusting 10 32.2
2020-Aug-09 14:05 246 4 gusting 10 32.2
2020-Aug-09 14:00 231 3 gusting 13 32.2
2020-Aug-09 13:50 250 3 gusting 10 32.8
2020-Aug-09 13:40 235 5 gusting 8 32.8
2020-Aug-09 13:35 214 5 gusting 8 32.8
2020-Aug-09 13:30 165 4 gusting 8 32.8
2020-Aug-09 13:25 228 3 gusting 8 32.8
2020-Aug-09 13:15 240 6 gusting 10 32.2
2020-Aug-09 13:10 212 3 gusting 12 32.8
2020-Aug-09 13:05 160 6 gusting 13 32.2
2020-Aug-09 12:55 204 6 gusting 13 32.2
2020-Aug-09 12:50 248 6 gusting 13 32.2
2020-Aug-09 12:45 236 6 gusting 12 32.8
2020-Aug-09 12:40 255 6 gusting 12 32.8
2020-Aug-09 12:35 231 6 gusting 12 33.3
2020-Aug-09 12:25 271 4 gusting 11 32.8
2020-Aug-09 12:20 234 5 gusting 11 33.3
2020-Aug-09 12:10 240 4 gusting 9 33.3
2020-Aug-09 12:05 252 5 gusting 8 32.8
2020-Aug-09 12:00 211 4 gusting 8 33.3
2020-Aug-09 11:55 208 5 gusting 8 32.8
2020-Aug-09 11:45 230 4 gusting 9 32.8
2020-Aug-09 11:35 259 5 gusting 11 32.8
2020-Aug-09 11:30 242 6 gusting 10 32.8
2020-Aug-09 11:25 249 4 gusting 9 32.8
2020-Aug-09 11:20 233 5 gusting 12 32.2
2020-Aug-09 11:10 258 6 gusting 12 32.8
2020-Aug-09 11:00 198 6 gusting 11 33.3
2020-Aug-09 10:56 221 3 gusting 7 33.3
2020-Aug-09 10:50 246 2 gusting 7 33.3
2020-Aug-09 10:45 243 2 gusting 7 33.3
2020-Aug-09 10:40 125 3 gusting 6 33.3
2020-Aug-09 10:35 216 1 gusting 6 33.3
2020-Aug-09 10:25 223 2 gusting 6 33.9
2020-Aug-09 10:20 165 4 gusting 6 33.3
2020-Aug-09 10:15 240 2 gusting 6 33.9
2020-Aug-09 10:10 236 1 gusting 6 33.9
2020-Aug-09 10:05 194 1 gusting 6 33.3
2020-Aug-09 10:00 131 0 gusting 3 33.3
2020-Aug-09 09:55 221 0 gusting 3 33.9
2020-Aug-09 09:45 061 33.9
2020-Aug-09 09:40 224 0 gusting 2 33.3
2020-Aug-09 09:30 111 0 gusting 2 32.2
2020-Aug-09 09:25 125 1 gusting 3 32.2
2020-Aug-09 09:20 167 0 gusting 3 31.7
2020-Aug-09 09:10 114 1 gusting 5 31.7
2020-Aug-09 09:00 101 2 gusting 5 31.1
2020-Aug-09 08:55 104 1 gusting 4 31.1
2020-Aug-09 08:50 082 1 gusting 4 30.6
2020-Aug-09 08:45 086 1 gusting 4 30.6
2020-Aug-09 08:35 072 0 gusting 4 30.0
2020-Aug-09 08:30 063 1 gusting 4 29.4
2020-Aug-09 08:20 120 29.4
2020-Aug-09 08:10 060 1 gusting 5 28.9
2020-Aug-09 08:05 017 2 gusting 4 28.3
2020-Aug-09 08:00 066 2 gusting 4 28.3
2020-Aug-09 07:50 033 2 gusting 4 27.2
2020-Aug-09 07:45 008 2 gusting 3 27.2
2020-Aug-09 07:35 046 3 gusting 5 26.7
2020-Aug-09 07:30 026 3 gusting 5 26.1
2020-Aug-09 07:25 030 3 gusting 5 25.6
2020-Aug-09 07:15 046 4 gusting 5 25.0
2020-Aug-09 07:10 032 3 gusting 4 25.0
2020-Aug-09 07:00 044 4 gusting 5 24.4
2020-Aug-09 06:55 027 3 gusting 5 24.4
2020-Aug-09 06:50 020 3 gusting 6 23.9
2020-Aug-09 06:45 025 4 gusting 6 23.9
2020-Aug-09 06:35 024 5 gusting 6 23.3
2020-Aug-09 06:30 026 4 gusting 6 23.3
2020-Aug-09 06:20 049 4 gusting 7 23.3
2020-Aug-09 06:15 022 4 gusting 7 22.8
2020-Aug-09 06:05 023 5 gusting 7 22.8
2020-Aug-09 06:00 006 5 gusting 7 22.2
2020-Aug-09 05:50 011 5 gusting 6 22.2
2020-Aug-09 05:45 016 5 gusting 6 21.7
2020-Aug-09 05:35 004 5 gusting 6 22.2
2020-Aug-09 05:30 027 4 gusting 6 22.2
2020-Aug-09 05:20 356 3 gusting 11 21.7
2020-Aug-09 05:10 025 3 gusting 11 21.7
2020-Aug-09 05:00 021 3 gusting 11 21.7
2020-Aug-09 04:55 336 3 gusting 11 21.1
2020-Aug-09 04:50 030 2 gusting 11 21.7
2020-Aug-09 04:45 020 3 gusting 11 21.7
2020-Aug-09 04:40 025 4 gusting 11 21.7
2020-Aug-09 04:35 009 5 gusting 11 21.7
2020-Aug-09 04:25 012 5 gusting 9 21.7
2020-Aug-09 04:20 349 3 gusting 6 21.7
2020-Aug-09 04:10 026 4 gusting 6 21.7
2020-Aug-09 04:05 029 4 gusting 6 21.1
2020-Aug-09 04:00 359 4 gusting 6 21.7
2020-Aug-09 03:55 015 4 gusting 6 21.7
2020-Aug-09 03:50 347 3 gusting 5 21.7
2020-Aug-09 03:45 048 3 gusting 5 21.7
2020-Aug-09 03:35 347 3 gusting 6 21.7
2020-Aug-09 03:30 014 5 gusting 6 21.1
2020-Aug-09 03:25 028 3 gusting 5 21.1
2020-Aug-09 03:15 005 3 gusting 6 21.7
2020-Aug-09 03:10 022 3 gusting 6 21.7
2020-Aug-09 03:05 015 3 gusting 6 22.2
2020-Aug-09 02:55 028 3 gusting 6 22.2
2020-Aug-09 02:50 342 4 gusting 6 22.2
2020-Aug-09 02:40 036 5 gusting 8 22.2
2020-Aug-09 02:35 007 6 gusting 8 22.2
2020-Aug-09 02:30 015 6 gusting 8 22.2
2020-Aug-09 02:20 006 4 gusting 7 22.2
2020-Aug-09 02:15 008 6 gusting 7 22.2
2020-Aug-09 02:10 015 5 gusting 6 22.2
2020-Aug-09 02:05 023 5 gusting 6 22.2
2020-Aug-09 02:00 348 4 gusting 6 22.8
2020-Aug-09 01:50 041 3 gusting 6 22.8
2020-Aug-09 01:40 020 3 gusting 7 22.2
2020-Aug-09 01:35 020 4 gusting 7 22.8
2020-Aug-09 01:30 005 5 gusting 7 22.8
2020-Aug-09 01:25 353 5 gusting 7 22.8
2020-Aug-09 01:15 356 5 gusting 7 22.8
2020-Aug-09 01:10 018 4 gusting 6 22.8
2020-Aug-09 01:00 032 5 gusting 6 22.8
2020-Aug-09 00:55 049 4 gusting 7 22.8
2020-Aug-09 00:50 008 5 gusting 7 22.8
2020-Aug-09 00:40 009 6 gusting 6 22.8
2020-Aug-09 00:35 340 5 gusting 6 22.8
2020-Aug-09 00:25 025 3 gusting 6 22.8
2020-Aug-09 00:20 044 3 gusting 6 22.8
2020-Aug-09 00:15 324 3 gusting 6 22.8
2020-Aug-09 00:10 024 4 gusting 6 22.8
2020-Aug-09 00:00 003 4 gusting 7 22.8
2020-Aug-08 23:55 027 4 gusting 6 22.8
2020-Aug-08 23:50 003 4 gusting 6 23.3
2020-Aug-08 23:45 018 5 gusting 6 23.3
2020-Aug-08 23:35 347 4 gusting 7 23.3
2020-Aug-08 23:30 340 5 gusting 7 23.9
2020-Aug-08 23:20 019 5 gusting 6 23.3
2020-Aug-08 23:15 021 3 gusting 7 23.3
2020-Aug-08 23:10 350 5 gusting 7 23.3
2020-Aug-08 23:00 033 4 gusting 6 23.3
2020-Aug-08 22:55 351 4 gusting 6 23.3
2020-Aug-08 22:45 342 3 gusting 6 23.3
2020-Aug-08 22:40 030 3 gusting 8 22.8
2020-Aug-08 22:30 034 3 gusting 6 23.3
2020-Aug-08 22:25 032 5 gusting 6 23.3
2020-Aug-08 22:15 013 5 gusting 8 23.3
2020-Aug-08 22:10 340 4 gusting 6 23.3
2020-Aug-08 22:05 011 4 gusting 7 23.3
2020-Aug-08 21:55 025 5 gusting 7 22.8
2020-Aug-08 21:50 015 2 gusting 7 23.3
2020-Aug-08 21:40 006 4 gusting 7 23.9
2020-Aug-08 21:35 020 4 gusting 7 23.9
2020-Aug-08 21:30 018 5 gusting 6 23.9
2020-Aug-08 21:20 013 4 gusting 6 24.4
2020-Aug-08 21:15 322 3 gusting 6 24.4
2020-Aug-08 21:05 016 3 gusting 8 24.4
2020-Aug-08 21:00 024 4 gusting 8 24.4
2020-Aug-08 20:50 032 6 gusting 8 24.4
2020-Aug-08 20:45 354 5 gusting 6 25.0
2020-Aug-08 20:40 012 3 gusting 6 24.4
2020-Aug-08 20:35 013 4 gusting 6 24.4
2020-Aug-08 20:25 021 3 gusting 6 25.6
2020-Aug-08 20:15 016 3 gusting 6 25.6
2020-Aug-08 20:10 352 4 gusting 6 25.6
2020-Aug-08 20:00 351 3 gusting 5 25.6
2020-Aug-08 19:55 023 4 gusting 6 25.6
2020-Aug-08 19:50 352 3 gusting 6 25.6
2020-Aug-08 19:40 010 4 gusting 7 26.1
2020-Aug-08 19:35 355 5 gusting 7 26.1
2020-Aug-08 19:25 020 3 gusting 7 26.1
2020-Aug-08 19:20 347 3 gusting 7 26.1
2020-Aug-08 19:15 006 6 gusting 7 26.7
2020-Aug-08 19:05 005 3 gusting 8 26.7
2020-Aug-08 19:00 020 5 gusting 8 27.2
2020-Aug-08 18:55 340 4 gusting 7 27.2
2020-Aug-08 18:45 005 5 gusting 7 27.2
2020-Aug-08 18:40 009 4 gusting 6 27.8
2020-Aug-08 18:30 025 3 gusting 6 27.8
2020-Aug-08 18:25 345 4 gusting 6 28.3
2020-Aug-08 18:20 334 4 gusting 6 28.3
2020-Aug-08 18:10 341 3 gusting 5 28.9
2020-Aug-08 18:05 347 2 gusting 4 28.9
2020-Aug-08 17:55 007 1 gusting 4 29.4
2020-Aug-08 17:50 018 1 gusting 3 29.4
2020-Aug-08 17:45 024 0 gusting 3 30.6
2020-Aug-08 17:35 304 0 gusting 7 31.1
2020-Aug-08 17:30 249 0 gusting 7 31.1
2020-Aug-08 17:20 229 0 gusting 7 31.7
2020-Aug-08 17:10 134 0 gusting 7 32.2
2020-Aug-08 17:05 250 0 gusting 7 32.2
2020-Aug-08 17:00 148 2 gusting 7 32.2
2020-Aug-08 16:50 245 2 gusting 5 33.3
2020-Aug-08 16:40 262 0 gusting 2 33.9
2020-Aug-08 16:35 237 0 gusting 4 33.9
2020-Aug-08 16:30 069 33.9
2020-Aug-08 16:20 129 1 gusting 5 33.9
2020-Aug-08 16:15 135 2 gusting 6 33.9
2020-Aug-08 16:10 236 4 gusting 6 33.9
2020-Aug-08 16:00 091 4 gusting 7 33.9
2020-Aug-08 15:55 160 2 gusting 6 33.9
2020-Aug-08 15:45 112 2 gusting 6 33.9
2020-Aug-08 15:40 205 3 gusting 6 33.9
2020-Aug-08 15:35 129 3 gusting 5 33.9
2020-Aug-08 15:30 134 1 gusting 7 33.9
2020-Aug-08 15:25 177 2 gusting 7 33.9
2020-Aug-08 15:20 138 1 gusting 6 33.9
2020-Aug-08 15:10 115 3 gusting 8 33.3
2020-Aug-08 15:05 195 4 gusting 8 33.3
2020-Aug-08 14:55 189 4 gusting 9 33.3
2020-Aug-08 14:50 192 5 gusting 9 33.9
2020-Aug-08 14:40 188 5 gusting 9 33.9
2020-Aug-08 14:35 193 5 gusting 8 33.9
2020-Aug-08 14:30 206 2 gusting 8 33.9
2020-Aug-08 14:20 208 3 gusting 7 34.4
2020-Aug-08 14:10 250 3 gusting 7 34.4
2020-Aug-08 14:00 241 5 gusting 7 33.9
2020-Aug-08 13:50 236 3 gusting 7 33.9
2020-Aug-08 13:45 174 2 gusting 7 33.9
2020-Aug-08 13:35 201 4 gusting 7 33.9
2020-Aug-08 13:30 249 3 gusting 9 33.3
2020-Aug-08 13:25 224 4 gusting 9 33.3
2020-Aug-08 13:15 174 4 gusting 7 33.3
2020-Aug-08 13:10 186 4 gusting 7 33.3
2020-Aug-08 13:00 232 4 gusting 11 33.3
2020-Aug-08 12:50 210 5 gusting 9 33.3
2020-Aug-08 12:45 130 4 gusting 8 33.3
2020-Aug-08 12:40 209 5 gusting 7 33.3
2020-Aug-08 12:30 172 4 gusting 9 33.3
2020-Aug-08 12:25 186 4 gusting 9 33.3
2020-Aug-08 12:20 219 3 gusting 8 33.3
2020-Aug-08 12:15 238 4 gusting 8 33.3
2020-Aug-08 12:10 233 2 gusting 8 33.3
2020-Aug-08 12:00 224 5 gusting 9 33.3
2020-Aug-08 11:55 231 4 gusting 9 33.3
2020-Aug-08 11:45 198 2 gusting 11 33.3
2020-Aug-08 11:40 220 3 gusting 7 33.9
2020-Aug-08 11:30 209 1 gusting 8 33.3
2020-Aug-08 11:20 175 4 gusting 8 33.3
2020-Aug-08 11:10 278 4 gusting 7 32.8
2020-Aug-08 11:05 270 3 gusting 6 33.3
2020-Aug-08 10:55 182 3 gusting 8 32.8
2020-Aug-08 10:50 254 4 gusting 8 32.8
2020-Aug-08 10:45 136 0 gusting 4 32.8
2020-Aug-08 10:40 291 0 gusting 6 32.2
2020-Aug-08 10:30 338 1 gusting 6 32.2
2020-Aug-08 10:25 120 1 gusting 5 32.2
2020-Aug-08 10:15 048 3 gusting 6 31.7
2020-Aug-08 10:10 319 1 gusting 6 31.7
2020-Aug-08 10:00 328 1 gusting 10 31.7
2020-Aug-08 09:55 025 6 gusting 10 31.1
2020-Aug-08 09:50 318 2 gusting 10 31.7
2020-Aug-08 09:45 032 3 gusting 7 31.7
2020-Aug-08 09:35 112 1 gusting 4 31.7
2020-Aug-08 09:30 094 2 gusting 6 31.1
2020-Aug-08 09:20 050 3 gusting 6 30.6
2020-Aug-08 09:15 079 1 gusting 6 30.6
2020-Aug-08 09:05 078 2 gusting 5 30.6
2020-Aug-08 09:00 022 1 gusting 6 30.6
2020-Aug-08 08:50 119 2 gusting 5 30.0
2020-Aug-08 08:45 143 1 gusting 4 30.0
2020-Aug-08 08:35 090 1 gusting 5 29.4
2020-Aug-08 08:30 085 3 gusting 5 29.4
2020-Aug-08 08:20 083 1 gusting 4 28.9
2020-Aug-08 08:10 075 2 gusting 4 28.3
2020-Aug-08 08:00 100 3 gusting 5 27.2